"Pseudo-MPEC" for ZTF0Mr9

Created 2021 Sep 24 4:07:16 UT using Find_Orb

Click here for an explanation of pseudo-MPECs

 
 Astrometry: 
     ZTF0Mr9  C2021 09 16.36560222 43 34.10 +36 31 08.9    ~9GBq       UNEOCPI41
     ZTF0Mr9  C2021 09 16.36594922 43 35.88 +36 30 49.7    ~9GBq       UNEOCPI41
     ZTF0Mr9  C2021 09 16.38450422 45 20.31 +36 12 05.9    ~9HCM       UNEOCPI41
     ZTF0Mr9  C2021 09 16.38485122 45 22.19 +36 11 45.2    ~9HCM       UNEOCPI41
     ZTF0Mr9  C2021 09 16.42412822 49 14.73 +35 29 09.1    ~9GBq 17.19RUNEOCPI41
     ZTF0Mr9  C2021 09 16.42447522 49 16.75 +35 28 46.2    ~9GBq 17.19RUNEOCPI41

Station data:
(I41) Palomar Mountain--ZTF  (N33.357340 W116.859780)  US/California. 1.2-m
   f/2.44 Oschin Schmidt + CCD.

Orbital elements:  ZTF0Mr9
   Perihelion 2021 Oct 22.906512 TT = 21:45:22 (JD 2459510.406512)
Epoch 2021 Sep 16.0 TT = JDT 2459473.5   Earth MOID: 0.0028   Ma: 0.0118
M 337.80238753                      (J2000 ecliptic)
n   0.60145516     Peri.  222.27575
a   1.38995437     Node   174.18010
e   0.3204351      Incl.   19.34454
P   1.64/598.54d   H   27.0     G   0.15   q 0.94456412  Q 1.83534462
From 6 observations 2021 Sept. 16 (84.8 min); mean residual 1".00
Residuals in arcseconds: 
210916 I41  1.3+  1.6-    210916 I41  1.9+  .67-    210916 I41  1.4+  .97-    
210916 I41  .40-  .31-    210916 I41  .68+  .13+    210916 I41  .07+  .19-    

Ephemerides (geocentric):
Date (UTC) HH   RA              Dec         delta   r     elong  mag
---- -- -- --  -------------   -----------  ------ ------ -----  ---
2021 09 24 04  08 21 28.305   -49 29 58.12  .04888 .98601  68.1 24.5
2021 09 24 05  08 21 36.584   -49 29 37.46  .04917 .98589  68.1 24.6
2021 09 24 06  08 21 44.773   -49 29 16.96  .04947 .98577  68.1 24.6
2021 09 24 07  08 21 52.876   -49 28 56.62  .04976 .98565  68.1 24.6
2021 09 24 08  08 22 00.892   -49 28 36.44  .05005 .98553  68.1 24.6
2021 09 24 09  08 22 08.824   -49 28 16.41  .05034 .98541  68.1 24.6
2021 09 24 10  08 22 16.674   -49 27 56.53  .05064 .98529  68.0 24.6
2021 09 24 11  08 22 24.442   -49 27 36.80  .05093 .98517  68.0 24.6
2021 09 24 12  08 22 32.131   -49 27 17.22  .05122 .98506  68.0 24.6
2021 09 24 13  08 22 39.742   -49 26 57.78  .05151 .98494  68.0 24.7
2021 09 24 14  08 22 47.276   -49 26 38.49  .05180 .98482  68.0 24.7
2021 09 24 15  08 22 54.734   -49 26 19.33  .05210 .98470  68.0 24.7
2021 09 24 16  08 23 02.118   -49 26 00.32  .05239 .98458  68.0 24.7
2021 09 24 17  08 23 09.430   -49 25 41.44  .05268 .98447  68.0 24.7
2021 09 24 18  08 23 16.670   -49 25 22.69  .05297 .98435  67.9 24.7
2021 09 24 19  08 23 23.840   -49 25 04.08  .05326 .98423  67.9 24.7
2021 09 24 20  08 23 30.940   -49 24 45.59  .05356 .98411  67.9 24.7
2021 09 24 21  08 23 37.973   -49 24 27.24  .05385 .98400  67.9 24.7
2021 09 24 22  08 23 44.939   -49 24 09.01  .05414 .98388  67.9 24.8
2021 09 24 23  08 23 51.840   -49 23 50.90  .05443 .98376  67.9 24.8
2021 09 25 00  08 23 58.677   -49 23 32.92  .05473 .98365  67.9 24.8
2021 09 25 01  08 24 05.450   -49 23 15.06  .05502 .98353  67.9 24.8
2021 09 25 02  08 24 12.160   -49 22 57.32  .05531 .98341  67.9 24.8
2021 09 25 03  08 24 18.810   -49 22 39.69  .05560 .98330  67.9 24.8
2021 09 25 04  08 24 25.400   -49 22 22.18  .05589 .98318  67.8 24.8
2021 09 25 05  08 24 31.930   -49 22 04.79  .05619 .98307  67.8 24.8
2021 09 25 06  08 24 38.402   -49 21 47.51  .05648 .98295  67.8 24.8
2021 09 25 07  08 24 44.817   -49 21 30.33  .05677 .98283  67.8 24.9
2021 09 25 08  08 24 51.176   -49 21 13.27  .05706 .98272  67.8 24.9
2021 09 25 09  08 24 57.479   -49 20 56.32  .05735 .98260  67.8 24.9
2021 09 25 10  08 25 03.728   -49 20 39.47  .05765 .98249  67.8 24.9
2021 09 25 11  08 25 09.924   -49 20 22.72  .05794 .98237  67.8 24.9
2021 09 25 12  08 25 16.067   -49 20 06.08  .05823 .98226  67.8 24.9
2021 09 25 13  08 25 22.158   -49 19 49.54  .05852 .98214  67.8 24.9
2021 09 25 14  08 25 28.198   -49 19 33.10  .05881 .98203  67.8 24.9
2021 09 25 15  08 25 34.188   -49 19 16.76  .05911 .98191  67.8 24.9
2021 09 25 16  08 25 40.128   -49 19 00.52  .05940 .98180  67.7 24.9
2021 09 25 17  08 25 46.020   -49 18 44.37  .05969 .98169  67.7 25.0
2021 09 25 18  08 25 51.865   -49 18 28.32  .05998 .98157  67.7 25.0
2021 09 25 19  08 25 57.662   -49 18 12.36  .06027 .98146  67.7 25.0
2021 09 25 20  08 26 03.412   -49 17 56.49  .06056 .98134  67.7 25.0
2021 09 25 21  08 26 09.118   -49 17 40.71  .06086 .98123  67.7 25.0
2021 09 25 22  08 26 14.778   -49 17 25.03  .06115 .98112  67.7 25.0
2021 09 25 23  08 26 20.394   -49 17 09.43  .06144 .98100  67.7 25.0
2021 09 26 00  08 26 25.967   -49 16 53.92  .06173 .98089  67.7 25.0
2021 09 26 01  08 26 31.497   -49 16 38.49  .06202 .98078  67.7 25.0
2021 09 26 02  08 26 36.984   -49 16 23.15  .06231 .98066  67.7 25.0
2021 09 26 03  08 26 42.431   -49 16 07.90  .06261 .98055  67.7 25.1